Location: Brabourne
(51.1333°N, 1.0000°E)
Time: 15:04:55
(UTC+00:00)

SeaSat 1 - Pass Details

Date: 30 October 2021
Orbit: 743 x 747 km, 108.0° (Epoch: 30 November)

Event Time Altitude Azimuth Distance (km) Brightness Sun altitude
Exits shadow 20:09:20 12° 360° (N) 2,147 5.0 -34.0°
Drops below altitude 10° 20:09:53 10° 354° (N) 2,277 5.2 -34.1°
Sets 20:12:53 0° 335° (NNW) 3,205 6.3 -34.5°
